OneWeb SL0561

operational
NORAD ID: 56710 Int'l Des: 2023-068 Owner: ONEWEBN Country: UK Constellation: oneweb
LEOCIRCULARPOLARONEWEB_TYPE

OneWeb SL0561について

説明を読み込み中...

リアルタイム位置

3D地球を読み込み中...

次回通過

高度履歴

Altitude vs Time

uPlot chart will show altitude changes over time

軌道要素

1 56710U 23068A 26062.13826475 .00000145 00000-0 32381-3 0 9990
2 56710 87.9177 295.6174 0001166 87.4359 272.6908 13.20772459135502
Epoch: Mar 3, 2026 • Age: 24 hours

現在のステータス

高度 1193.7 km
速度 7.26 km/s
衛星直下点 74.47°N, 145.76°E
打ち上げ日 May 20, 2023
運用期間 2.7 years
タイプ internet

技術仕様

分類 Payload
質量 148.00 kg
乾燥質量 140.00 kg
総質量 148.00 kg
長さ 1.30 m
直径 1.00 m
スパン 5.00 m
形状 Trapezoid+2 pan
製造者 ONEWUS
バスタイプ ARROW
フェーズステータス In Orbit
所有者/国 ONEWEBN/UK

大規模コンステレーション

Loading constellations...